Location: Godiavel Galaoual
(15.2485°N, 12.6604°W)
Time: 06:53:13
(UTC+00:00)

ATLAS CENTAUR Rocket - Pass Details

Date: 27 February 2020
Orbit: 656 x 36590 km, 28.5° (Epoch: 06 April)

Event Time Altitude Azimuth Distance (km) Brightness Sun altitude
Rises 19:44:45 0° 258° (WSW) 2,990 7.1 -12.1°
Reaches altitude 10° 19:46:37 10° 263° (W) 2,061 5.8 -12.5°
Maximum altitude 19:50:18 55° 343° (NNW) 1,012 2.7 -13.4°
Enters shadow 19:57:08 14° 60° (ENE) 3,853 5.0 -15.1°
